TimeEST,TemperatureF,Dew PointF,Humidity,Sea Level PressureIn,VisibilityMPH,Wind Direction,Wind SpeedMPH,Gust SpeedMPH,PrecipitationIn,Events,Conditions,WindDirDegrees,DateUTC
12:54 AM,28.0,18.0,66,30.38,10.0,East,10.4,-,N/A,,Overcast,80,2013-03-07 05:54:00
1:54 AM,28.0,19.0,69,30.38,10.0,East,8.1,-,N/A,,Overcast,80,2013-03-07 06:54:00
2:54 AM,28.0,18.0,66,30.40,10.0,East,6.9,-,N/A,,Overcast,90,2013-03-07 07:54:00
3:54 AM,28.0,19.0,69,30.40,10.0,East,9.2,-,N/A,,Overcast,80,2013-03-07 08:54:00
4:54 AM,28.0,18.0,66,30.39,10.0,ENE,6.9,18.4,N/A,,Overcast,70,2013-03-07 09:54:00
5:54 AM,28.0,19.0,69,30.38,10.0,ENE,10.4,-,N/A,,Overcast,70,2013-03-07 10:54:00
6:54 AM,27.0,18.0,69,30.38,10.0,ENE,11.5,-,N/A,,Overcast,60,2013-03-07 11:54:00
7:54 AM,28.0,19.0,69,30.39,10.0,East,11.5,-,N/A,,Overcast,80,2013-03-07 12:54:00
8:54 AM,28.0,19.0,69,30.40,10.0,East,12.7,-,N/A,,Overcast,80,2013-03-07 13:54:00
9:54 AM,28.9,19.0,67,30.39,10.0,ENE,10.4,-,N/A,,Overcast,70,2013-03-07 14:54:00
10:54 AM,30.0,19.0,64,30.38,10.0,ENE,13.8,20.7,N/A,,Overcast,70,2013-03-07 15:54:00
11:54 AM,30.0,19.0,64,30.37,10.0,ENE,12.7,-,N/A,,Overcast,60,2013-03-07 16:54:00
12:54 PM,30.9,19.9,64,30.36,10.0,ENE,10.4,-,N/A,,Overcast,70,2013-03-07 17:54:00
1:30 PM,32.0,19.4,60,30.30,10.0,ENE,12.7,-,N/A,,Overcast,70,2013-03-07 18:30:00
1:54 PM,32.0,19.9,61,30.33,10.0,ENE,12.7,-,N/A,,Overcast,60,2013-03-07 18:54:00
2:01 PM,32.0,21.2,64,30.29,10.0,NE,16.1,20.7,N/A,,Overcast,50,2013-03-07 19:01:00
2:54 PM,32.0,19.9,61,30.32,10.0,NE,15.0,21.9,N/A,,Overcast,50,2013-03-07 19:54:00
3:54 PM,30.9,21.0,67,30.32,10.0,NE,13.8,-,N/A,,Overcast,50,2013-03-07 20:54:00
4:54 PM,30.9,21.0,67,30.33,10.0,NE,15.0,20.7,N/A,,Overcast,50,2013-03-07 21:54:00
5:54 PM,30.9,21.0,67,30.34,10.0,ENE,8.1,-,N/A,,Overcast,60,2013-03-07 22:54:00
6:54 PM,30.0,21.0,69,30.34,10.0,East,9.2,-,N/A,,Overcast,80,2013-03-07 23:54:00
7:54 PM,28.9,21.0,72,30.34,10.0,ENE,11.5,-,N/A,,Overcast,60,2013-03-08 00:54:00
8:54 PM,28.9,21.0,72,30.33,10.0,ENE,10.4,-,N/A,,Overcast,60,2013-03-08 01:54:00
9:54 PM,28.0,19.9,72,30.32,10.0,ENE,10.4,-,N/A,,Overcast,60,2013-03-08 02:54:00
10:54 PM,28.0,19.9,72,30.31,10.0,NE,8.1,-,N/A,,Overcast,50,2013-03-08 03:54:00
11:54 PM,27.0,19.0,72,30.30,10.0,NNE,8.1,-,N/A,,Overcast,30,2013-03-08 04:54:00